Weather History for KRCE - August, 2013

Change the Weather History Date:

Monday, August 26, 2013

  Actual Average (KOKC) Record (KOKC)
Temperature  
Mean Temperature 78 °F 81 °F  
Max Temperature 89 °F 92 °F 105 °F (1999)
Min Temperature 68 °F 70 °F 53 °F (1910)
Cooling Degree Days 14 16  
Month to date cooling degree days 462  
Year to date cooling degree days 1661  
Growing Degree Days 28 (Base 50)    
Moisture  
Dew Point 67 °F    
Average Humidity 67    
Maximum Humidity 94    
Minimum Humidity 46    
Precipitation  
Precipitation 0.00 in 0.10 in 1.99 in (2006)
Month to date precipitation 2.73  
Year to date precipitation 24.34  
Sea Level Pressure  
Sea Level Pressure 30.17 in    
Wind  
Wind Speed 10 mph (SSE)    
Max Wind Speed 15 mph    
Max Gust Speed 22 mph    
T = Trace of Precipitation, MM = Missing Value Source: NWS Daily Summary

Daily Weather History Graph

Daily Weather History Graph

Search for Another Location

Airport or City:

Trip Planner

Search our weather history database for the weather conditions in past years. The results will help you decide how hot, cold, wet, or windy it might be!

Date:

Astronomy

Aug. 26, 2013 Rise Set
Actual Time 6:59 AM CDT 8:06 PM CDT
Civil Twilight 6:32 AM CDT 8:32 PM CDT
Nautical Twilight 6:01 AM CDT 9:03 PM CDT
Astronomical Twilight 5:29 AM CDT 9:35 PM CDT
Moon 11:32 PM CDT (8/26) 12:47 PM CDT (8/26)
Length of Visible Light 13h 59m
Length of Day
13h 06m
Waning Gibbous, 66% of the Moon is Illuminated
Aug 26
Waning Gibbous
Aug 28
Last Quarter
Sep 5
New
Sep 12
First Quarter
Sep 19
Full

Hourly Weather History & Observations

Time (CDT) Temp. Heat Index Dew Point Humidity Pressure Visibility Wind Dir Wind Speed Gust Speed Precip Events Conditions
12:15 AM 77.0 °F - 71.6 °F 83% 30.18 in - SE 10.4 mph - N/A   Unknown
12:35 AM 77.0 °F - 71.6 °F 83% 30.17 in - SE 11.5 mph - N/A   Unknown
12:55 AM 77.0 °F - 69.8 °F 78% 30.17 in - SE 12.7 mph 17.3 mph N/A   Unknown
1:15 AM 77.0 °F - 69.8 °F 78% 30.18 in - SE 12.7 mph - N/A   Unknown
1:35 AM 77.0 °F - 68.0 °F 74% 30.18 in - SSE 12.7 mph - N/A   Clear
1:55 AM 77.0 °F - 68.0 °F 74% 30.17 in - SSE 11.5 mph - N/A   Clear
2:15 AM 77.0 °F - 66.2 °F 69% 30.18 in - SSE 11.5 mph - N/A   Clear
2:35 AM 77.0 °F - 66.2 °F 69% 30.18 in - SSE 12.7 mph - N/A   Unknown
2:55 AM 77.0 °F - 66.2 °F 69% 30.18 in - South 11.5 mph - N/A   Unknown
3:15 AM 77.0 °F - 66.2 °F 69% 30.18 in - SSE 12.7 mph - N/A   Unknown
3:35 AM 75.2 °F - 66.2 °F 73% 30.18 in - South 10.4 mph - N/A   Unknown
3:55 AM 75.2 °F - 66.2 °F 73% 30.18 in - South 9.2 mph - N/A   Unknown
4:15 AM 73.4 °F - 66.2 °F 78% 30.18 in - South 9.2 mph - N/A   Unknown
4:35 AM 73.4 °F - 66.2 °F 78% 30.18 in - South 8.1 mph - N/A   Unknown
4:55 AM 71.6 °F - 66.2 °F 83% 30.19 in - South 5.8 mph - N/A   Clear
5:15 AM 71.6 °F - 66.2 °F 83% 30.19 in - South 6.9 mph - N/A   Clear
5:35 AM 71.6 °F - 66.2 °F 83% 30.19 in - South 5.8 mph - N/A   Clear
5:55 AM 69.8 °F - 66.2 °F 88% 30.20 in - SSW 3.5 mph - N/A   Unknown
6:15 AM 68.0 °F - 66.2 °F 94% 30.19 in - South 5.8 mph - N/A   Unknown
6:35 AM 69.8 °F - 66.2 °F 88% 30.20 in - South 5.8 mph - N/A   Unknown
6:55 AM 68.0 °F - 66.2 °F 94% 30.20 in - SSE 5.8 mph - N/A   Unknown
7:15 AM 68.0 °F - 66.2 °F 94% 30.21 in - SSE 4.6 mph - N/A   Unknown
7:35 AM 69.8 °F - 66.2 °F 88% 30.21 in - SSE 6.9 mph - N/A   Unknown
7:55 AM 73.4 °F - 68.0 °F 83% 30.21 in - SSE 8.1 mph - N/A   Clear
8:15 AM 75.2 °F - 68.0 °F 78% 30.22 in - South 9.2 mph - N/A   Clear
8:35 AM 77.0 °F - 66.2 °F 69% 30.22 in - South 10.4 mph - N/A   Clear
8:55 AM 77.0 °F - 68.0 °F 74% 30.22 in - South 12.7 mph - N/A   Clear
9:15 AM 78.8 °F - 68.0 °F 69% 30.22 in - South 11.5 mph 19.6 mph N/A   Clear
9:35 AM 80.6 °F 83.2 °F 68.0 °F 65% 30.22 in - SSW 15.0 mph 19.6 mph N/A   Clear
9:55 AM 80.6 °F 83.2 °F 68.0 °F 65% 30.22 in - SSW 15.0 mph 20.7 mph N/A   Clear
10:15 AM 82.4 °F 85.4 °F 68.0 °F 62% 30.22 in - SSW 12.7 mph 21.9 mph N/A   Clear
10:35 AM 82.4 °F 85.4 °F 68.0 °F 62% 30.23 in - South 13.8 mph 18.4 mph N/A   Clear
10:55 AM 84.2 °F 88.4 °F 69.8 °F 62% 30.23 in - South 13.8 mph 19.6 mph N/A   Clear
11:15 AM 84.2 °F 88.4 °F 69.8 °F 62% 30.23 in - South 15.0 mph 20.7 mph N/A   Clear
11:35 AM 84.2 °F 88.4 °F 69.8 °F 62% 30.23 in - South 15.0 mph 19.6 mph N/A   Clear
11:55 AM 84.2 °F 88.4 °F 69.8 °F 62% 30.22 in - South 13.8 mph 17.3 mph N/A   Clear
12:15 PM 86.0 °F 90.4 °F 69.8 °F 58% 30.22 in - SSW 12.7 mph - N/A   Clear
12:35 PM 86.0 °F 90.4 °F 69.8 °F 58% 30.22 in - SSW 8.1 mph 17.3 mph N/A   Partly Cloudy
12:55 PM 86.0 °F 90.4 °F 69.8 °F 58% 30.21 in - South 11.5 mph 16.1 mph N/A   Scattered Clouds
1:15 PM 86.0 °F 90.4 °F 69.8 °F 58% 30.20 in - SSW 9.2 mph - N/A   Partly Cloudy
1:35 PM 87.8 °F 91.4 °F 68.0 °F 52% 30.19 in - SSE 11.5 mph 17.3 mph N/A   Partly Cloudy
1:55 PM 86.0 °F 89.4 °F 68.0 °F 55% 30.19 in - SSE 9.2 mph 19.6 mph N/A   Partly Cloudy
2:15 PM 87.8 °F 90.4 °F 66.2 °F 49% 30.18 in - South 9.2 mph - N/A   Scattered Clouds
2:35 PM 87.8 °F 91.4 °F 68.0 °F 52% 30.18 in - SSE 13.8 mph 17.3 mph N/A   Partly Cloudy
2:55 PM 87.8 °F 91.4 °F 68.0 °F 52% 30.17 in - SSE 11.5 mph 18.4 mph N/A   Partly Cloudy
3:15 PM 89.6 °F 93.4 °F 68.0 °F 49% 30.17 in - SE 13.8 mph 17.3 mph N/A   Partly Cloudy
3:35 PM 89.6 °F 93.4 °F 68.0 °F 49% 30.16 in - SSE 10.4 mph 18.4 mph N/A   Clear
3:55 PM 89.6 °F 93.4 °F 68.0 °F 49% 30.15 in - SE 10.4 mph 19.6 mph N/A   Clear
4:15 PM 89.6 °F 92.2 °F 66.2 °F 46% 30.15 in - SSE 12.7 mph - N/A   Clear
4:35 PM 89.6 °F 92.2 °F 66.2 °F 46% 30.14 in - SSE 13.8 mph 18.4 mph N/A   Clear
4:55 PM 89.6 °F 93.4 °F 68.0 °F 49% 30.13 in - ESE 9.2 mph 16.1 mph N/A   Clear
5:15 PM 89.6 °F 93.4 °F 68.0 °F 49% 30.13 in - SSE 13.8 mph - N/A   Partly Cloudy
5:35 PM 89.6 °F 92.2 °F 66.2 °F 46% 30.13 in - SSE 10.4 mph 16.1 mph N/A   Clear
5:55 PM 87.8 °F 90.4 °F 66.2 °F 49% 30.12 in - SE 11.5 mph - N/A   Clear
6:15 PM 87.8 °F 90.4 °F 66.2 °F 49% 30.12 in - SSE 10.4 mph - N/A   Clear
6:35 PM 86.0 °F 88.2 °F 66.2 °F 51% 30.12 in - SE 11.5 mph - N/A   Clear
6:55 PM 86.0 °F 88.2 °F 66.2 °F 51% 30.11 in - SE 10.4 mph - N/A   Clear
7:15 PM 86.0 °F 88.2 °F 66.2 °F 51% 30.11 in - SE 10.4 mph - N/A   Clear
7:35 PM 82.4 °F 85.4 °F 68.0 °F 62% 30.11 in - SE 6.9 mph - N/A   Clear
7:55 PM 82.4 °F 85.4 °F 68.0 °F 62% 30.12 in - SE 5.8 mph - N/A   Clear
8:15 PM 80.6 °F 82.7 °F 66.2 °F 61% 30.12 in - SE 8.1 mph - N/A   Clear
8:35 PM 78.8 °F - 66.2 °F 65% 30.12 in - SE 6.9 mph - N/A   Clear
8:55 PM 77.0 °F - 68.0 °F 74% 30.13 in - SE 6.9 mph - N/A   Unknown
9:15 PM 77.0 °F - 68.0 °F 74% 30.13 in - SE 8.1 mph - N/A   Unknown
9:35 PM 77.0 °F - 68.0 °F 74% 30.13 in - SE 8.1 mph - N/A   Unknown
9:55 PM 77.0 °F - 68.0 °F 74% 30.13 in - SE 9.2 mph - N/A   Unknown
10:15 PM 77.0 °F - 68.0 °F 74% 30.13 in - SE 8.1 mph - N/A   Unknown
10:35 PM 77.0 °F - 66.2 °F 69% 30.13 in - SE 8.1 mph - N/A   Unknown
10:55 PM 75.2 °F - 66.2 °F 73% 30.13 in - SE 8.1 mph - N/A   Unknown
11:15 PM 75.2 °F - 66.2 °F 73% 30.13 in - SE 8.1 mph - N/A   Unknown
11:35 PM 75.2 °F - 66.2 °F 73% 30.13 in - SE 8.1 mph - N/A   Clear
11:55 PM 75.2 °F - 66.2 °F 73% 30.12 in - SE 8.1 mph - N/A   Clear